[[{"header":{"parameterUnit":"m.s-1","parameterCategory":1,"la1":30.2991,"la2":30.254,"lo1":-89.0895,"lo2":-89.0444,"dy":0.0017,"dx":0.0017,"nx":28,"ny":28,"refTime":"2024-04-12T03:00:00:Z","depth":0,"parameterNumber":2,"parameterNumberName":"U-component_of_WINDS"},"data":[0,0,0,0,0,0,0,0,0,0,0,0,0,0,0,0,0,0,0,0,0,0,0,0,0,0,0,0,0,0,0,0,0,0,0,0,0,0,0,0,0,0,0,0,0,0,0,0,0,0,0,0,0,0,0,0,0,0,0.7222,0.7222,0,0.7241,0.7241,0.7241,0.7245,0.7245,0.7245,0.7245,0.7263,0.7264,0.7265,0,0,0,0,0,0,0,0,0,0,0,0,0,0.7191,0.7191,0.7222,0.7222,0.7222,0.724,0.7241,0.7241,0.7245,0.7245,0.7245,0.7245,0.7263,0.7264,0.7265,0,0,0,0,0,0,0,0,0,0,0,0,0,0.7206,0.7191,0.7222,0.7227,0.7227,0.724,0.7241,0.7241,0.7245,0.7245,0.7245,0.7245,0.7263,0.7264,0.7265,0.7274,0,0,0.7267,0.7268,0,0,0,0,0,0,0,0,0.7205,0.7207,0.7226,0.7226,0.7227,0.724,0.7237,0.7252,0.7245,0.7238,0.7245,0.7244,0.7256,0.7257,0.7261,0.7275,0.7276,0.7268,0.7268,0.7269,0.7269,0,0,0,0,0,0,0,0.7204,0.7207,0.7229,0.7226,0.7227,0.7228,0.723,0.724,0.7248,0.7239,0.7239,0.7241,0.7256,0.726,0.7262,0.7276,0.7268,0.7268,0.7269,0.7269,0.73,0.7301,0,0,0,0,0,0,0.7202,0.7206,0.7229,0.723,0.7216,0.7229,0.7231,0.7236,0.7248,0.7249,0.7242,0.7242,0.7259,0.7261,0.7262,0.7275,0.7269,0.7269,0.727,0.73,0.7301,0.7301,0,0,0,0,0,0,0.7202,0.7204,0.7228,0.7218,0.7221,0.723,0.7235,0.7237,0.7241,0.725,0.7251,0.7244,0.7259,0.7261,0.7272,0.7276,0.727,0.7271,0.73,0.73,0.7301,0.73,0,0,0,0,0,0,0.7201,0.7204,0.7208,0.7218,0.7222,0.7237,0.7236,0.7237,0.7242,0.7243,0.7253,0.7254,0.7259,0.727,0.7273,0.7277,0.7271,0.73,0.73,0.7301,0.73,0.73,0.7301,0,0,0,0,0,0.72,0.7206,0.7208,0.721,0.7226,0.7237,0.7239,0.7244,0.7243,0.7247,0.7253,0.7254,0.7275,0.7271,0.7274,0.7279,0.7299,0.73,0.7301,0.7299,0.73,0.7301,0,0,0,0,0,0,0.7196,0.7208,0.7209,0.722,0.7227,0.7238,0.7242,0.7245,0.7253,0.7252,0.7258,0.7261,0.7271,0.7276,0.7272,0.7289,0.7287,0.7288,0.7285,0.7286,0.7287,0.7285,0.7272,0,0,0,0,0,0.7196,0.7204,0.7214,0.7222,0.7226,0.7233,0.7238,0.7242,0.725,0.7253,0.726,0.7268,0.7276,0.7282,0.729,0.7301,0.7303,0.7305,0.7306,0.7307,0.7307,0.7314,0.7316,0.7303,0.7303,0.7303,0,0,0.7197,0.7204,0.7209,0.7221,0.7228,0.7236,0.7236,0.7244,0.7251,0.7254,0.7265,0.727,0.728,0.7291,0.7296,0.7295,0.7312,0.7307,0.7308,0.7308,0.7315,0.7316,0.7317,0.7303,0.7303,0.7303,0,0,0.7202,0.7208,0.7216,0.7223,0.7233,0.7238,0.724,0.725,0.7254,0.7265,0.7268,0.7276,0.729,0.7297,0.7302,0.7312,0.7314,0.7315,0.7318,0.7325,0.7326,0.7327,0.733,0.7332,0.7316,0.7316,0.7316,0,0.7201,0.7214,0.722,0.7228,0.7234,0.7239,0.7247,0.7253,0.7265,0.7269,0.7268,0.7287,0.7294,0.7307,0.731,0.7314,0.7316,0.7313,0.7325,0.7326,0.7327,0.7331,0.7332,0.7316,0.7316,0.7316,0.7316,0,0.7213,0.7221,0.7227,0.7239,0.7245,0.7253,0.7261,0.7267,0.7271,0.7276,0.7288,0.7296,0.7307,0.731,0.7313,0.7324,0.7323,0.7324,0.7322,0.7328,0.7332,0.7333,0.7316,0.7316,0.7316,0.7316,0,0,0.7215,0.7231,0.7233,0.7239,0.7251,0.7258,0.7267,0.7278,0.7283,0.7292,0.73,0.7312,0.7313,0.7319,0.7323,0.733,0.7338,0.7329,0.733,0.7331,0.7351,0.735,0.7352,0.7339,0.7339,0.734,0.735,0,0.7221,0.7238,0.7244,0.7257,0.7266,0.7271,0.7279,0.7288,0.7294,0.7302,0.7309,0.7318,0.7318,0.7322,0.7328,0.7335,0.7342,0.7335,0.7347,0.7347,0.7344,0.7354,0.7353,0.7362,0.7352,0.7352,0.7352,0,0.7231,0.7241,0.7255,0.7267,0.7271,0.7278,0.7289,0.7297,0.7307,0.7311,0.7319,0.7323,0.7333,0.7331,0.7346,0.7341,0.7346,0.7351,0.7351,0.7352,0.735,0.7355,0.7365,0.7367,0.7354,0.7354,0.7354,0,0.7231,0.7248,0.7259,0.7264,0.7278,0.7283,0.7289,0.7299,0.7306,0.7315,0.732,0.7331,0.7336,0.7345,0.7352,0.735,0.7366,0.7365,0.737,0.737,0.7373,0.7372,0.7384,0.7377,0.7377,0.7377,0.7377,0,0.7238,0.7247,0.7259,0.7266,0.7276,0.7284,0.7294,0.73,0.731,0.7318,0.7323,0.7331,0.734,0.7349,0.7355,0.7367,0.7369,0.7373,0.7374,0.7372,0.7372,0.7376,0.7375,0.7377,0.7377,0.7377,0.7377,0,0.724,0.7248,0.7261,0.7274,0.7277,0.7284,0.7296,0.7303,0.7309,0.732,0.7323,0.7334,0.7345,0.7353,0.7367,0.7372,0.7384,0.7385,0.738,0.7381,0.7386,0.7385,0.74,0.7403,0.7394,0.7394,0.7394,0,0.7243,0.725,0.7265,0.7271,0.7277,0.7287,0.7294,0.7302,0.7309,0.7322,0.7328,0.734,0.7349,0.7367,0.7376,0.7388,0.7389,0.7394,0.7391,0.7389,0.739,0.7389,0.739,0.7394,0.7394,0.7394,0.7394,0,0.7249,0.7253,0.7263,0.7275,0.7283,0.7292,0.7302,0.7307,0.7317,0.7325,0.7337,0.7344,0.736,0.7371,0.7384,0.7391,0.7394,0.7395,0.7397,0.7395,0.7392,0.7394,0.7381,0.7395,0.7395,0.7394,0.7394,0.7394,0.7252,0.7258,0.727,0.7281,0.7289,0.7298,0.7306,0.7314,0.7324,0.7337,0.7342,0.7354,0.7366,0.7383,0.739,0.74,0.74,0.7403,0.7403,0.7404,0.7404,0.7391,0.7402,0.7402,0.7402,0.7402,0.7402,0,0.7258,0.7266,0.7276,0.7289,0.7298,0.7302,0.7313,0.732,0.7331,0.7341,0.7351,0.7365,0.7377,0.7388,0.74,0.7406,0.7408,0.7409,0.7409,0.741,0.7403,0.74,0.7407,0.7407,0.7407,0.7407,0.7407,0.7407,0.7262,0.7274,0.7279,0.7296,0.7304,0.7316,0.7322,0.7331,0.7339,0.7355,0.7365,0.7372,0.7383,0.7396,0.7408,0.741,0.7415,0.7415,0.7418,0.7411,0.7411,0.741,0.7407,0.7416,0.7416,0.7425,0.7425,0.7425]},{"header":{"parameterUnit":"m.s-1","parameterCategory":1,"la1":30.2991,"la2":30.254,"lo1":-89.0895,"lo2":-89.0444,"dy":0.0017,"dx":0.0017,"nx":28,"ny":28,"refTime":"2024-04-12T03:00:00:Z","depth":0,"parameterNumber":3,"parameterNumberName":"V-component_of_WINDS"},"data":[0,0,0,0,0,0,0,0,0,0,0,0,0,0,0,0,0,0,0,0,0,0,0,0,0,0,0,0,0,0,0,0,0,0,0,0,0,0,0,0,0,0,0,0,0,0,0,0,0,0,0,0,0,0,0,0,0,0,-3.1093,-3.1094,0,-3.1209,-3.121,-3.1212,-3.1186,-3.1183,-3.1181,-3.1179,-3.1298,-3.1303,-3.1308,0,0,0,0,0,0,0,0,0,0,0,0,0,-3.085,-3.0854,-3.1093,-3.1094,-3.1096,-3.1209,-3.121,-3.1212,-3.1186,-3.1183,-3.1181,-3.1178,-3.1296,-3.1302,-3.1308,0,0,0,0,0,0,0,0,0,0,0,0,0,-3.096,-3.0856,-3.1093,-3.1096,-3.1098,-3.1208,-3.121,-3.1212,-3.1187,-3.1183,-3.118,-3.1177,-3.1294,-3.1301,-3.1309,-3.1423,0,0,-3.1333,-3.1336,0,0,0,0,0,0,0,0,-3.0953,-3.0969,-3.1094,-3.1096,-3.1098,-3.1179,-3.1168,-3.1283,-3.1187,-3.1153,-3.1179,-3.1175,-3.1261,-3.1271,-3.13,-3.1428,-3.1433,-3.1334,-3.1338,-3.1342,-3.1344,0,0,0,0,0,0,0,-3.0946,-3.0963,-3.1139,-3.1096,-3.1099,-3.1093,-3.1105,-3.119,-3.1224,-3.1156,-3.1154,-3.1168,-3.1261,-3.1293,-3.1303,-3.1435,-3.1333,-3.134,-3.1345,-3.1348,-3.1664,-3.1668,0,0,0,0,0,0,-3.0937,-3.0957,-3.1135,-3.1142,-3.1016,-3.11,-3.1113,-3.1157,-3.1223,-3.123,-3.1171,-3.1166,-3.1281,-3.1294,-3.1307,-3.1445,-3.1342,-3.1349,-3.1353,-3.1661,-3.1665,-3.1669,0,0,0,0,0,0,-3.0931,-3.0953,-3.113,-3.1049,-3.1072,-3.1107,-3.1157,-3.1161,-3.1192,-3.1234,-3.124,-3.1197,-3.1279,-3.1296,-3.1395,-3.1449,-3.1352,-3.136,-3.1656,-3.1662,-3.1667,-3.1723,0,0,0,0,0,0,-3.0925,-3.0951,-3.0994,-3.1051,-3.1076,-3.1216,-3.116,-3.1165,-3.1206,-3.1201,-3.126,-3.1267,-3.1278,-3.1383,-3.1402,-3.1458,-3.1366,-3.1651,-3.1659,-3.1665,-3.1716,-3.1729,-3.1741,0,0,0,0,0,-3.0916,-3.1005,-3.0997,-3.1018,-3.1131,-3.1219,-3.1234,-3.1245,-3.121,-3.1254,-3.1282,-3.1265,-3.144,-3.1393,-3.1415,-3.1474,-3.1648,-3.1657,-3.1665,-3.1711,-3.1727,-3.1741,0,0,0,0,0,0,-3.0953,-3.1012,-3.1004,-3.1113,-3.1162,-3.1215,-3.127,-3.1261,-3.132,-3.1313,-3.1324,-3.1338,-3.1439,-3.1466,-3.1413,-3.1588,-3.1539,-3.1552,-3.1567,-3.1582,-3.1595,-3.1586,-3.1372,0,0,0,0,0,-3.0975,-3.1041,-3.1089,-3.1181,-3.1206,-3.1234,-3.1273,-3.1278,-3.1328,-3.1348,-3.1383,-3.1432,-3.1499,-3.1542,-3.1605,-3.172,-3.1733,-3.1771,-3.1784,-3.1793,-3.1805,-3.1869,-3.1887,-3.1697,-3.1697,-3.1696,0,0,-3.1019,-3.1059,-3.11,-3.119,-3.1228,-3.1297,-3.1252,-3.1326,-3.1378,-3.1359,-3.1455,-3.1482,-3.1538,-3.1646,-3.1695,-3.1672,-3.186,-3.1804,-3.1812,-3.1818,-3.1879,-3.1897,-3.1913,-3.1702,-3.1701,-3.17,0,0,-3.1135,-3.1172,-3.1253,-3.1292,-3.1351,-3.1369,-3.1389,-3.1444,-3.1461,-3.1558,-3.1545,-3.1607,-3.1721,-3.1762,-3.1797,-3.1931,-3.1918,-3.1951,-3.2016,-3.2078,-3.2093,-3.2107,-3.2155,-3.2172,-3.1962,-3.1962,-3.1963,0,-3.1182,-3.1286,-3.1296,-3.1373,-3.1413,-3.14,-3.1483,-3.1521,-3.1596,-3.1625,-3.1597,-3.1741,-3.1778,-3.1896,-3.1928,-3.1957,-3.1981,-3.1944,-3.209,-3.2104,-3.2116,-3.2163,-3.2181,-3.1966,-3.1966,-3.1965,-3.1965,0,-3.1342,-3.1414,-3.1473,-3.1548,-3.1595,-3.1674,-3.1697,-3.1743,-3.1744,-3.1765,-3.1864,-3.1908,-3.1981,-3.2009,-3.201,-3.2128,-3.2112,-3.2087,-3.2038,-3.2138,-3.2182,-3.22,-3.1971,-3.197,-3.1969,-3.1968,0,0,-3.1484,-3.1564,-3.1586,-3.162,-3.1684,-3.174,-3.182,-3.1891,-3.1931,-3.1984,-3.2051,-3.2149,-3.2127,-3.2168,-3.2174,-3.2229,-3.2333,-3.2198,-3.2199,-3.2222,-3.2467,-3.2485,-3.2505,-3.2325,-3.2328,-3.2331,-3.2462,0,-3.1606,-3.1746,-3.1759,-3.1885,-3.1952,-3.1942,-3.2011,-3.2058,-3.2081,-3.2142,-3.2167,-3.2236,-3.2202,-3.2227,-3.228,-3.2309,-3.2382,-3.2299,-3.2388,-3.2391,-3.2375,-3.2528,-3.2547,-3.2668,-3.2479,-3.2482,-3.2484,0,-3.1768,-3.1826,-3.1959,-3.2015,-3.2044,-3.2106,-3.2173,-3.2232,-3.2285,-3.2298,-3.2344,-3.2343,-3.2426,-3.2374,-3.2488,-3.2432,-3.2469,-3.2489,-3.2494,-3.2503,-3.2444,-3.2542,-3.2707,-3.2726,-3.2511,-3.2509,-3.2507,0,-3.1859,-3.1971,-3.2066,-3.2095,-3.2162,-3.2207,-3.2237,-3.2287,-3.233,-3.2389,-3.2417,-3.2484,-3.2521,-3.2574,-3.2592,-3.2552,-3.2706,-3.2655,-3.2719,-3.2719,-3.2752,-3.275,-3.2927,-3.2776,-3.2775,-3.2775,-3.2775,0,-3.1994,-3.2077,-3.2108,-3.2166,-3.2258,-3.2272,-3.2362,-3.239,-3.2435,-3.2499,-3.2494,-3.2554,-3.2573,-3.2637,-3.2651,-3.2744,-3.2761,-3.2774,-3.2777,-3.2775,-3.2773,-3.28,-3.2792,-3.278,-3.2779,-3.2778,-3.2777,0,-3.2112,-3.2136,-3.2239,-3.2294,-3.231,-3.2376,-3.2424,-3.248,-3.2502,-3.2583,-3.2603,-3.2638,-3.2713,-3.2735,-3.2825,-3.2835,-3.2945,-3.294,-3.2927,-3.2927,-3.299,-3.2985,-3.3191,-3.3219,-3.3048,-3.305,-3.3051,0,-3.2197,-3.226,-3.2323,-3.2366,-3.2398,-3.2466,-3.251,-3.2526,-3.2572,-3.2639,-3.2688,-3.2762,-3.2822,-3.2942,-3.2976,-3.3045,-3.3042,-3.311,-3.3052,-3.3049,-3.3044,-3.304,-3.3047,-3.312,-3.3122,-3.3124,-3.3125,0,-3.2346,-3.2355,-3.2418,-3.2487,-3.254,-3.2594,-3.2646,-3.2682,-3.2705,-3.2758,-3.2834,-3.2881,-3.2974,-3.3048,-3.3118,-3.315,-3.3142,-3.3143,-3.3161,-3.316,-3.3151,-3.3158,-3.2957,-3.3138,-3.3137,-3.3136,-3.3135,-3.3134,-3.245,-3.2507,-3.256,-3.2631,-3.2673,-3.2722,-3.2778,-3.2808,-3.2872,-3.2949,-3.2955,-3.3038,-3.3092,-3.3186,-3.3221,-3.3287,-3.3267,-3.3294,-3.3301,-3.3308,-3.3313,-3.314,-3.33,-3.3299,-3.3299,-3.3299,-3.3298,0,-3.26,-3.2634,-3.2699,-3.2773,-3.283,-3.2818,-3.2876,-3.2924,-3.2997,-3.3048,-3.3107,-3.3196,-3.3269,-3.3308,-3.3381,-3.3426,-3.3424,-3.3444,-3.3441,-3.3449,-3.3326,-3.3303,-3.3445,-3.3445,-3.3444,-3.3444,-3.3444,-3.3444,-3.2684,-3.2779,-3.2795,-3.291,-3.2944,-3.3026,-3.306,-3.3106,-3.3147,-3.3246,-3.3306,-3.3332,-3.3379,-3.3455,-3.3521,-3.3531,-3.3558,-3.358,-3.3588,-3.3472,-3.3458,-3.3443,-3.3422,-3.3586,-3.3586,-3.3706,-3.3707,-3.3708]}]]